Location: Archemont
(49.1579°N, 1.7598°E)
Time: 09:52:46
(UTC+00:00)

deb Explorer IX - Pass Details

Date: 15 April 2024
Orbit: 513 x 891 km, 38.7° (Epoch: 23 May)

Event Time Altitude Azimuth Distance (km) Brightness Sun altitude
Rises 13:36:24 0° 231° (SW) 3,514 ? 45.4°
Reaches altitude 10° 13:39:25 10° 219° (SW) 2,576 ? 45.1°
Maximum altitude 13:44:23 26° 166° (SSE) 1,694 ? 44.6°
Drops below altitude 10° 13:49:12 10° 112° (ESE) 2,495 ? 44.0°
Sets 13:52:04 0° 100° (E) 3,381 ? 43.7°
